utcTime,localTime,pm25,nowcast
2022-09-09 15:00:00 +0000,2022-09-09 08:00:00 -0700,6.4,NA
2022-09-09 16:00:00 +0000,2022-09-09 09:00:00 -0700,6,6.1
2022-09-09 17:00:00 +0000,2022-09-09 10:00:00 -0700,6.7,6.3
2022-09-09 18:00:00 +0000,2022-09-09 11:00:00 -0700,8.5,7.2
2022-09-09 19:00:00 +0000,2022-09-09 12:00:00 -0700,10.1,8.5
2022-09-09 20:00:00 +0000,2022-09-09 13:00:00 -0700,14.3,11.6
2022-09-09 21:00:00 +0000,2022-09-09 14:00:00 -0700,16.7,14.1
2022-09-09 22:00:00 +0000,2022-09-09 15:00:00 -0700,28.4,21.3
2022-09-09 23:00:00 +0000,2022-09-09 16:00:00 -0700,36.9,29.1
2022-09-10 00:00:00 +0000,2022-09-09 17:00:00 -0700,18.8,23.9
2022-09-10 01:00:00 +0000,2022-09-09 18:00:00 -0700,10.7,17.3
2022-09-10 02:00:00 +0000,2022-09-09 19:00:00 -0700,8.3,12.8
2022-09-10 03:00:00 +0000,2022-09-09 20:00:00 -0700,9.5,11.1
2022-09-10 04:00:00 +0000,2022-09-09 21:00:00 -0700,9,10
2022-09-10 05:00:00 +0000,2022-09-09 22:00:00 -0700,9.5,9.7
2022-09-10 06:00:00 +0000,2022-09-09 23:00:00 -0700,10,9.8
2022-09-10 07:00:00 +0000,2022-09-10 00:00:00 -0700,11.7,10.7
2022-09-10 08:00:00 +0000,2022-09-10 01:00:00 -0700,7.8,9.2
2022-09-10 09:00:00 +0000,2022-09-10 02:00:00 -0700,6.7,7.9
2022-09-10 10:00:00 +0000,2022-09-10 03:00:00 -0700,7,7.4
2022-09-10 11:00:00 +0000,2022-09-10 04:00:00 -0700,9.6,8.5
2022-09-10 12:00:00 +0000,2022-09-10 05:00:00 -0700,15.2,11.8
2022-09-10 13:00:00 +0000,2022-09-10 06:00:00 -0700,20.4,16.1
2022-09-10 14:00:00 +0000,2022-09-10 07:00:00 -0700,26.6,21.3
2022-09-10 15:00:00 +0000,2022-09-10 08:00:00 -0700,31.8,26.5
2022-09-10 16:00:00 +0000,2022-09-10 09:00:00 -0700,42,34.2
2022-09-10 17:00:00 +0000,2022-09-10 10:00:00 -0700,56.3,45.3
2022-09-10 18:00:00 +0000,2022-09-10 11:00:00 -0700,60.8,53
2022-09-10 19:00:00 +0000,2022-09-10 12:00:00 -0700,66.2,59.6
2022-09-10 20:00:00 +0000,2022-09-10 13:00:00 -0700,78,68.8
2022-09-10 21:00:00 +0000,2022-09-10 14:00:00 -0700,172.3,120.5
2022-09-10 22:00:00 +0000,2022-09-10 15:00:00 -0700,159.5,140
2022-09-10 23:00:00 +0000,2022-09-10 16:00:00 -0700,119.7,129.8
2022-09-11 00:00:00 +0000,2022-09-10 17:00:00 -0700,86,107.9
2022-09-11 01:00:00 +0000,2022-09-10 18:00:00 -0700,81.2,94.5
2022-09-11 02:00:00 +0000,2022-09-10 19:00:00 -0700,73.3,83.9
2022-09-11 03:00:00 +0000,2022-09-10 20:00:00 -0700,70.2,77
2022-09-11 04:00:00 +0000,2022-09-10 21:00:00 -0700,63.9,70.4
2022-09-11 05:00:00 +0000,2022-09-10 22:00:00 -0700,60.5,65.4
2022-09-11 06:00:00 +0000,2022-09-10 23:00:00 -0700,58.5,61.9
2022-09-11 07:00:00 +0000,2022-09-11 00:00:00 -0700,54.2,58
2022-09-11 08:00:00 +0000,2022-09-11 01:00:00 -0700,51.3,54.6
2022-09-11 09:00:00 +0000,2022-09-11 02:00:00 -0700,49.4,52
2022-09-11 10:00:00 +0000,2022-09-11 03:00:00 -0700,48.9,50.4
2022-09-11 11:00:00 +0000,2022-09-11 04:00:00 -0700,48.3,49.8
2022-09-11 12:00:00 +0000,2022-09-11 05:00:00 -0700,46.2,48.3
2022-09-11 13:00:00 +0000,2022-09-11 06:00:00 -0700,42.6,45.9
2022-09-11 14:00:00 +0000,2022-09-11 07:00:00 -0700,36.9,41.3
2022-09-11 15:00:00 +0000,2022-09-11 08:00:00 -0700,31.2,36.1
2022-09-11 16:00:00 +0000,2022-09-11 09:00:00 -0700,29.9,33
2022-09-11 17:00:00 +0000,2022-09-11 10:00:00 -0700,27.7,30.3
2022-09-11 18:00:00 +0000,2022-09-11 11:00:00 -0700,26.3,28.3
2022-09-11 19:00:00 +0000,2022-09-11 12:00:00 -0700,26.6,27.5
2022-09-11 20:00:00 +0000,2022-09-11 13:00:00 -0700,31.7,29.5
2022-09-11 21:00:00 +0000,2022-09-11 14:00:00 -0700,38.8,33.8
2022-09-11 22:00:00 +0000,2022-09-11 15:00:00 -0700,33.8,33.7
2022-09-11 23:00:00 +0000,2022-09-11 16:00:00 -0700,34.1,33.8
2022-09-12 00:00:00 +0000,2022-09-11 17:00:00 -0700,35.4,34.3
2022-09-12 01:00:00 +0000,2022-09-11 18:00:00 -0700,33.9,33.9
2022-09-12 02:00:00 +0000,2022-09-11 19:00:00 -0700,26.5,31.5
2022-09-12 03:00:00 +0000,2022-09-11 20:00:00 -0700,20.4,25.7
2022-09-12 04:00:00 +0000,2022-09-11 21:00:00 -0700,20.2,23
2022-09-12 05:00:00 +0000,2022-09-11 22:00:00 -0700,18.3,20.5
2022-09-12 06:00:00 +0000,2022-09-11 23:00:00 -0700,18.2,19.3
2022-09-12 07:00:00 +0000,2022-09-12 00:00:00 -0700,17.9,18.6
2022-09-12 08:00:00 +0000,2022-09-12 01:00:00 -0700,18.6,18.6
2022-09-12 09:00:00 +0000,2022-09-12 02:00:00 -0700,18.7,18.6
2022-09-12 10:00:00 +0000,2022-09-12 03:00:00 -0700,20.3,19.4
2022-09-12 11:00:00 +0000,2022-09-12 04:00:00 -0700,23.7,21.5
2022-09-12 12:00:00 +0000,2022-09-12 05:00:00 -0700,24.8,23
2022-09-12 13:00:00 +0000,2022-09-12 06:00:00 -0700,NA,NA
2022-09-12 14:00:00 +0000,2022-09-12 07:00:00 -0700,37.1,32.4
2022-09-12 15:00:00 +0000,2022-09-12 08:00:00 -0700,26.1,28.8
2022-09-12 16:00:00 +0000,2022-09-12 09:00:00 -0700,26.3,27.4
2022-09-12 17:00:00 +0000,2022-09-12 10:00:00 -0700,26,26.7
2022-09-12 18:00:00 +0000,2022-09-12 11:00:00 -0700,22.5,24.5
2022-09-12 19:00:00 +0000,2022-09-12 12:00:00 -0700,21.9,23.2
2022-09-12 20:00:00 +0000,2022-09-12 13:00:00 -0700,22.9,23
2022-09-12 21:00:00 +0000,2022-09-12 14:00:00 -0700,24.1,23.6
2022-09-12 22:00:00 +0000,2022-09-12 15:00:00 -0700,23.5,23.6
2022-09-12 23:00:00 +0000,2022-09-12 16:00:00 -0700,22.3,23
2022-09-13 00:00:00 +0000,2022-09-12 17:00:00 -0700,19.5,21.3
2022-09-13 01:00:00 +0000,2022-09-12 18:00:00 -0700,19,20.1
2022-09-13 02:00:00 +0000,2022-09-12 19:00:00 -0700,20.4,21
2022-09-13 03:00:00 +0000,2022-09-12 20:00:00 -0700,20.9,20.9
2022-09-13 04:00:00 +0000,2022-09-12 21:00:00 -0700,21.2,21
2022-09-13 05:00:00 +0000,2022-09-12 22:00:00 -0700,21.3,21.1
2022-09-13 06:00:00 +0000,2022-09-12 23:00:00 -0700,20.4,20.9
2022-09-13 07:00:00 +0000,2022-09-13 00:00:00 -0700,18.7,20.3
2022-09-13 08:00:00 +0000,2022-09-13 01:00:00 -0700,17.1,19.2
2022-09-13 09:00:00 +0000,2022-09-13 02:00:00 -0700,15.4,17.7
2022-09-13 10:00:00 +0000,2022-09-13 03:00:00 -0700,14.2,16.3
2022-09-13 11:00:00 +0000,2022-09-13 04:00:00 -0700,13.8,15.5
2022-09-13 12:00:00 +0000,2022-09-13 05:00:00 -0700,14.1,15
2022-09-13 13:00:00 +0000,2022-09-13 06:00:00 -0700,14,14.6
2022-09-13 14:00:00 +0000,2022-09-13 07:00:00 -0700,14.1,14.4
2022-09-13 15:00:00 +0000,2022-09-13 08:00:00 -0700,14.1,14.3
2022-09-13 16:00:00 +0000,2022-09-13 09:00:00 -0700,13.6,14
2022-09-13 17:00:00 +0000,2022-09-13 10:00:00 -0700,12.9,13.5
2022-09-13 18:00:00 +0000,2022-09-13 11:00:00 -0700,12.9,13.4
2022-09-13 19:00:00 +0000,2022-09-13 12:00:00 -0700,12.6,13.2
2022-09-13 20:00:00 +0000,2022-09-13 13:00:00 -0700,12.7,13.2
2022-09-13 21:00:00 +0000,2022-09-13 14:00:00 -0700,13.9,13.4
2022-09-13 22:00:00 +0000,2022-09-13 15:00:00 -0700,14,13.4
2022-09-13 23:00:00 +0000,2022-09-13 16:00:00 -0700,13.6,13.4
2022-09-14 00:00:00 +0000,2022-09-13 17:00:00 -0700,14,13.5
2022-09-14 01:00:00 +0000,2022-09-13 18:00:00 -0700,15.8,14
2022-09-14 02:00:00 +0000,2022-09-13 19:00:00 -0700,17.7,15.2
2022-09-14 03:00:00 +0000,2022-09-13 20:00:00 -0700,18.1,16.2
2022-09-14 04:00:00 +0000,2022-09-13 21:00:00 -0700,18.1,16.8
2022-09-14 05:00:00 +0000,2022-09-13 22:00:00 -0700,17.6,17
2022-09-14 06:00:00 +0000,2022-09-13 23:00:00 -0700,14.3,16.2
2022-09-14 07:00:00 +0000,2022-09-14 00:00:00 -0700,14.2,15.6
2022-09-14 08:00:00 +0000,2022-09-14 01:00:00 -0700,12.6,14.7
2022-09-14 09:00:00 +0000,2022-09-14 02:00:00 -0700,12.6,14
2022-09-14 10:00:00 +0000,2022-09-14 03:00:00 -0700,12.2,13.3
2022-09-14 11:00:00 +0000,2022-09-14 04:00:00 -0700,11.7,12.6
2022-09-14 12:00:00 +0000,2022-09-14 05:00:00 -0700,11.7,12.3
2022-09-14 13:00:00 +0000,2022-09-14 06:00:00 -0700,11.8,12.1
2022-09-14 14:00:00 +0000,2022-09-14 07:00:00 -0700,12,12
2022-09-14 15:00:00 +0000,2022-09-14 08:00:00 -0700,13,12.3
2022-09-14 16:00:00 +0000,2022-09-14 09:00:00 -0700,13.4,12.7
2022-09-14 17:00:00 +0000,2022-09-14 10:00:00 -0700,13.2,12.7
2022-09-14 18:00:00 +0000,2022-09-14 11:00:00 -0700,12.4,12.6
2022-09-14 19:00:00 +0000,2022-09-14 12:00:00 -0700,12.4,12.5
2022-09-14 20:00:00 +0000,2022-09-14 13:00:00 -0700,12.6,12.5
2022-09-14 21:00:00 +0000,2022-09-14 14:00:00 -0700,12,12.4
2022-09-14 22:00:00 +0000,2022-09-14 15:00:00 -0700,12.7,12.4
2022-09-14 23:00:00 +0000,2022-09-14 16:00:00 -0700,13.3,12.6
2022-09-15 00:00:00 +0000,2022-09-14 17:00:00 -0700,13.2,12.7
2022-09-15 01:00:00 +0000,2022-09-14 18:00:00 -0700,12.6,12.7
2022-09-15 02:00:00 +0000,2022-09-14 19:00:00 -0700,12.5,12.7
2022-09-15 03:00:00 +0000,2022-09-14 20:00:00 -0700,12.6,12.7
2022-09-15 04:00:00 +0000,2022-09-14 21:00:00 -0700,11,12.3
2022-09-15 05:00:00 +0000,2022-09-14 22:00:00 -0700,9.2,11.2
2022-09-15 06:00:00 +0000,2022-09-14 23:00:00 -0700,9.6,10.7
2022-09-15 07:00:00 +0000,2022-09-15 00:00:00 -0700,9.7,10.3
2022-09-15 08:00:00 +0000,2022-09-15 01:00:00 -0700,9.9,10.2
2022-09-15 09:00:00 +0000,2022-09-15 02:00:00 -0700,10,10.1
2022-09-15 10:00:00 +0000,2022-09-15 03:00:00 -0700,9.9,10
2022-09-15 11:00:00 +0000,2022-09-15 04:00:00 -0700,9.6,9.9
2022-09-15 12:00:00 +0000,2022-09-15 05:00:00 -0700,9.2,9.7
2022-09-15 13:00:00 +0000,2022-09-15 06:00:00 -0700,9.1,9.5
2022-09-15 14:00:00 +0000,2022-09-15 07:00:00 -0700,9.5,9.5
2022-09-15 15:00:00 +0000,2022-09-15 08:00:00 -0700,9.9,9.6
2022-09-15 16:00:00 +0000,2022-09-15 09:00:00 -0700,9.9,9.6
2022-09-15 17:00:00 +0000,2022-09-15 10:00:00 -0700,9.6,9.6
2022-09-15 18:00:00 +0000,2022-09-15 11:00:00 -0700,9.7,9.6
2022-09-15 19:00:00 +0000,2022-09-15 12:00:00 -0700,9.9,9.6
2022-09-15 20:00:00 +0000,2022-09-15 13:00:00 -0700,10.4,9.7
2022-09-15 21:00:00 +0000,2022-09-15 14:00:00 -0700,11.8,10.3
2022-09-15 22:00:00 +0000,2022-09-15 15:00:00 -0700,13,11.2
2022-09-15 23:00:00 +0000,2022-09-15 16:00:00 -0700,13.3,11.9
2022-09-16 00:00:00 +0000,2022-09-15 17:00:00 -0700,13.1,12.3
2022-09-16 01:00:00 +0000,2022-09-15 18:00:00 -0700,11.3,11.9
2022-09-16 02:00:00 +0000,2022-09-15 19:00:00 -0700,9.9,11.3
2022-09-16 03:00:00 +0000,2022-09-15 20:00:00 -0700,9,10.5
2022-09-16 04:00:00 +0000,2022-09-15 21:00:00 -0700,5.6,7.7
2022-09-16 05:00:00 +0000,2022-09-15 22:00:00 -0700,3.9,5.8
2022-09-16 06:00:00 +0000,2022-09-15 23:00:00 -0700,3.2,4.5
2022-09-16 07:00:00 +0000,2022-09-16 00:00:00 -0700,3.2,3.8
2022-09-16 08:00:00 +0000,2022-09-16 01:00:00 -0700,3.5,3.6
2022-09-16 09:00:00 +0000,2022-09-16 02:00:00 -0700,3.5,3.5
2022-09-16 10:00:00 +0000,2022-09-16 03:00:00 -0700,3,3.2
2022-09-16 11:00:00 +0000,2022-09-16 04:00:00 -0700,3,3.1
2022-09-16 12:00:00 +0000,2022-09-16 05:00:00 -0700,3.1,3.1
2022-09-16 13:00:00 +0000,2022-09-16 06:00:00 -0700,3.5,3.3
2022-09-16 14:00:00 +0000,2022-09-16 07:00:00 -0700,4.2,3.7
2022-09-16 15:00:00 +0000,2022-09-16 08:00:00 -0700,5.4,4.4
2022-09-16 16:00:00 +0000,2022-09-16 09:00:00 -0700,5.1,4.7
2022-09-16 17:00:00 +0000,2022-09-16 10:00:00 -0700,5.7,5.2
2022-09-16 18:00:00 +0000,2022-09-16 11:00:00 -0700,6.2,5.7
2022-09-16 19:00:00 +0000,2022-09-16 12:00:00 -0700,7.2,6.4
2022-09-16 20:00:00 +0000,2022-09-16 13:00:00 -0700,6.4,6.4
2022-09-16 21:00:00 +0000,2022-09-16 14:00:00 -0700,6.4,6.4
2022-09-16 22:00:00 +0000,2022-09-16 15:00:00 -0700,5.7,6
2022-09-16 23:00:00 +0000,2022-09-16 16:00:00 -0700,5,5.5
2022-09-17 00:00:00 +0000,2022-09-16 17:00:00 -0700,4.5,5
2022-09-17 01:00:00 +0000,2022-09-16 18:00:00 -0700,3.3,4.1
2022-09-17 02:00:00 +0000,2022-09-16 19:00:00 -0700,3,3.5
2022-09-17 03:00:00 +0000,2022-09-16 20:00:00 -0700,2.8,3.1
2022-09-17 04:00:00 +0000,2022-09-16 21:00:00 -0700,2.6,2.8
2022-09-17 05:00:00 +0000,2022-09-16 22:00:00 -0700,2.5,2.6
2022-09-17 06:00:00 +0000,2022-09-16 23:00:00 -0700,2.5,2.5
2022-09-17 07:00:00 +0000,2022-09-17 00:00:00 -0700,2.5,2.5
2022-09-17 08:00:00 +0000,2022-09-17 01:00:00 -0700,2.5,2.5
2022-09-17 09:00:00 +0000,2022-09-17 02:00:00 -0700,3,2.7
2022-09-17 10:00:00 +0000,2022-09-17 03:00:00 -0700,3.4,3
2022-09-17 11:00:00 +0000,2022-09-17 04:00:00 -0700,2.4,2.7
2022-09-17 12:00:00 +0000,2022-09-17 05:00:00 -0700,2.5,2.6
2022-09-17 13:00:00 +0000,2022-09-17 06:00:00 -0700,2.6,2.6
2022-09-17 14:00:00 +0000,2022-09-17 07:00:00 -0700,2.9,2.7
2022-09-17 15:00:00 +0000,2022-09-17 08:00:00 -0700,3.5,2.9
2022-09-17 16:00:00 +0000,2022-09-17 09:00:00 -0700,2.8,2.9
2022-09-17 17:00:00 +0000,2022-09-17 10:00:00 -0700,2.1,2.6
2022-09-17 18:00:00 +0000,2022-09-17 11:00:00 -0700,2.4,2.5
2022-09-17 19:00:00 +0000,2022-09-17 12:00:00 -0700,2.9,2.6
2022-09-17 20:00:00 +0000,2022-09-17 13:00:00 -0700,3.5,3
2022-09-17 21:00:00 +0000,2022-09-17 14:00:00 -0700,3.6,3.2
2022-09-17 22:00:00 +0000,2022-09-17 15:00:00 -0700,3.6,3.4
2022-09-17 23:00:00 +0000,2022-09-17 16:00:00 -0700,3.9,3.6
2022-09-18 00:00:00 +0000,2022-09-17 17:00:00 -0700,4.7,4.1
2022-09-18 01:00:00 +0000,2022-09-17 18:00:00 -0700,4.7,4.4
2022-09-18 02:00:00 +0000,2022-09-17 19:00:00 -0700,4.3,4.3
2022-09-18 03:00:00 +0000,2022-09-17 20:00:00 -0700,3.9,4.1
2022-09-18 04:00:00 +0000,2022-09-17 21:00:00 -0700,4.4,4.2
2022-09-18 05:00:00 +0000,2022-09-17 22:00:00 -0700,4.1,4.1
2022-09-18 06:00:00 +0000,2022-09-17 23:00:00 -0700,4.1,4.1
2022-09-18 07:00:00 +0000,2022-09-18 00:00:00 -0700,3.8,4
2022-09-18 08:00:00 +0000,2022-09-18 01:00:00 -0700,3.3,3.8
2022-09-18 09:00:00 +0000,2022-09-18 02:00:00 -0700,3.1,3.5
2022-09-18 10:00:00 +0000,2022-09-18 03:00:00 -0700,3.4,3.4
2022-09-18 11:00:00 +0000,2022-09-18 04:00:00 -0700,3.3,3.4
2022-09-18 12:00:00 +0000,2022-09-18 05:00:00 -0700,3.8,3.5
2022-09-18 13:00:00 +0000,2022-09-18 06:00:00 -0700,4.3,3.7
2022-09-18 14:00:00 +0000,2022-09-18 07:00:00 -0700,4.7,4.1
2022-09-18 15:00:00 +0000,2022-09-18 08:00:00 -0700,4.6,4.2
2022-09-18 16:00:00 +0000,2022-09-18 09:00:00 -0700,4.2,4.2
2022-09-18 17:00:00 +0000,2022-09-18 10:00:00 -0700,5.7,4.9
2022-09-18 18:00:00 +0000,2022-09-18 11:00:00 -0700,3.6,4.3
2022-09-18 19:00:00 +0000,2022-09-18 12:00:00 -0700,3.3,3.8
2022-09-18 20:00:00 +0000,2022-09-18 13:00:00 -0700,3.4,3.6
2022-09-18 21:00:00 +0000,2022-09-18 14:00:00 -0700,3.5,3.6
2022-09-18 22:00:00 +0000,2022-09-18 15:00:00 -0700,3.5,3.5
2022-09-18 23:00:00 +0000,2022-09-18 16:00:00 -0700,3.5,3.5
2022-09-19 00:00:00 +0000,2022-09-18 17:00:00 -0700,3.3,3.4
2022-09-19 01:00:00 +0000,2022-09-18 18:00:00 -0700,3.8,3.5
2022-09-19 02:00:00 +0000,2022-09-18 19:00:00 -0700,3.5,3.5
2022-09-19 03:00:00 +0000,2022-09-18 20:00:00 -0700,4.4,3.9
2022-09-19 04:00:00 +0000,2022-09-18 21:00:00 -0700,5.2,4.4
2022-09-19 05:00:00 +0000,2022-09-18 22:00:00 -0700,4.9,4.5
2022-09-19 06:00:00 +0000,2022-09-18 23:00:00 -0700,5.2,4.7
2022-09-19 07:00:00 +0000,2022-09-19 00:00:00 -0700,4.6,4.7
2022-09-19 08:00:00 +0000,2022-09-19 01:00:00 -0700,4,4.4
2022-09-19 09:00:00 +0000,2022-09-19 02:00:00 -0700,4,4.2
2022-09-19 10:00:00 +0000,2022-09-19 03:00:00 -0700,6.8,5.4
2022-09-19 11:00:00 +0000,2022-09-19 04:00:00 -0700,3.6,4.5
2022-09-19 12:00:00 +0000,2022-09-19 05:00:00 -0700,3.4,3.9
2022-09-19 13:00:00 +0000,2022-09-19 06:00:00 -0700,3.5,3.7
2022-09-19 14:00:00 +0000,2022-09-19 07:00:00 -0700,4.1,3.9
2022-09-19 15:00:00 +0000,2022-09-19 08:00:00 -0700,NA,NA
